Temperature
8 8 9 9 9 9 9 9 10 10 10 10 10 10 10 10 10 10 10 10 10 10 10 10 10 10 10 10 10 10 10 9 9 9 8 7 7 6 6 6 6 5 5
8 8 8 8 8 9 9 9 9 9 9 9 10 10 10 10 10 10 10 10 10 10 10 9 9 9 9 9 9 9 9 9 9 8 7 7 6 6 5 5 5 5 4
7 7 7 8 8 8 8 8 8 9 9 9 9 9 9 9 9 9 9 9 9 9 9 9 9 9 9 9 9 9 9 8 8 7 7 6 6 5 5 4 4 4 3
6 7 7 7 7 7 7 7 8 8 8 8 8 8 8 8 8 8 8 8 8 8 8 8 8 8 8 8 8 8 8 8 7 7 7 6 5 5 4 4 4 3 3
5 6 6 6 6 6 6 7 7 7 7 7 7 7 7 7 7 7 7 8 8 8 8 8 8 8 8 7 8 8 7 7 7 6 6 6 5 5 4 4 3 3 2
4 5 5 5 5 5 5 6 6 6 6 6 6 7 7 7 7 7 7 7 7 7 7 7 7 7 7 7 7 7 7 6 6 6 6 6 5 5 4 3 3 2 2
4 4 4 4 4 4 4 4 5 5 5 5 5 6 6 6 6 6 6 6 6 6 6 6 6 6 6 6 6 6 6 6 5 5 5 5 5 4 4 3 2 2 2
3 3 3 3 3 3 3 3 3 3 4 4 4 4 5 5 5 5 5 5 5 5 5 6 5 6 6 6 6 5 5 5 5 5 5 4 4 4 3 3 2 1 1
2 2 2 2 2 2 2 2 2 2 3 3 3 3 3 4 4 4 4 4 4 5 5 5 5 5 5 5 5 5 4 4 4 4 4 4 3 3 2 2 2 1 1
1 1 1 1 1 1 1 1 1 1 2 2 2 2 2 2 3 3 3 3 3 3 4 4 4 4 4 4 4 4 4 4 4 3 3 3 3 2 2 2 1 1 1
0 0 0 0 0 0 0 0 0 0 1 1 1 1 1 1 1 2 2 2 2 2 2 3 3 3 3 3 3 3 3 3 2 2 2 2 2 2 1 1 1 1 1
-1 -1 -1 -1 -1 -1 -1 -1 -1 -1 -1 -0 -0 0 0 0 1 1 1 1 1 1 2 2 2 2 2 2 2 2 2 2 1 1 2 2 2 1 1 1 1 0 0
-2 -1 -2 -2 -2 -2 -2 -2 -2 -2 -2 -2 -2 -1 -1 -1 -1 -0 -0 0 0 0 1 1 1 1 1 1 1 1 1 1 1 1 1 1 1 0 0 0 -0 -0 -0
-2 -2 -2 -2 -2 -2 -3 -3 -3 -3 -3 -3 -3 -3 -2 -2 -2 -1 -1 -1 -1 -1 -0 0 0 1 1 1 1 0 1 1 1 1 0 -0 -0 -0 -0 -0 -0 -1 -1
-3 -3 -3 -4 -4 -4 -4 -4 -4 -4 -4 -4 -4 -4 -3 -3 -3 -3 -2 -2 -2 -1 -1 -1 -1 -0 -0 -0 -0 -0 0 -0 -0 -0 -1 -1 -1 -1 -1 -1 -1 -1 -1
-4 -4 -4 -4 -4 -5 -5 -4 -4 -5 -5 -5 -5 -4 -4 -4 -3 -3 -3 -3 -2 -2 -2 -2 -1 -1 -1 -0 -0 -0 -0 -0 -0 -1 -1 -1 -1 -1 -1 -2 -2 -1 -1
-5 -5 -5 -5 -5 -6 -6 -6 -5 -5 -5 -5 -5 -5 -5 -4 -4 -4 -3 -3 -3 -3 -2 -2 -2 -1 -1 -1 -1 -1 -0 -1 -1 -1 -1 -1 -2 -2 -2 -2 -2 -2 -2
-6 -6 -6 -6 -6 -6 -6 -6 -6 -6 -6 -5 -5 -5 -5 -5 -5 -4 -4 -4 -4 -3 -3 -3 -2 -2 -2 -1 -1 -1 -1 -1 -1 -1 -2 -2 -2 -2 -2 -2 -2 -2 -2
-6 -6 -6 -7 -7 -6 -7 -7 -7 -6 -6 -6 -6 -5 -5 -5 -5 -5 -5 -4 -4 -4 -3 -3 -3 -2 -2 -2 -2 -2 -2 -1 -2 -2 -2 -2 -2 -2 -2 -2 -2 -3 -3
-6 -7 -7 -7 -7 -7 -7 -7 -7 -7 -7 -7 -7 -6 -6 -6 -5 -5 -5 -5 -5 -4 -4 -4 -3 -3 -3 -2 -2 -2 -2 -2 -2 -2 -2 -2 -2 -2 -2 -2 -3 -3 -3
-7 -7 -7 -7 -7 -7 -7 -7 -7 -7 -7 -7 -7 -7 -7 -6 -6 -6 -5 -5 -5 -5 -4 -4 -4 -3 -3 -3 -3 -2 -2 -2 -2 -2 -2 -2 -2 -3 -3 -3 -3 -3 -3
-8 -8 -8 -8 -8 -8 -8 -8 -8 -8 -8 -8 -7 -7 -7 -7 -6 -6 -6 -5 -5 -5 -5 -4 -4 -4 -3 -3 -3 -3 -3 -3 -3 -3 -2 -2 -2 -3 -3 -3 -3 -3 -4
-8 -8 -8 -8 -8 -8 -8 -8 -8 -8 -8 -8 -8 -7 -7 -7 -7 -6 -6 -6 -5 -5 -5 -5 -4 -4 -4 -3 -3 -3 -3 -3 -3 -3 -3 -3 -3 -3 -3 -3 -3 -3 -3
-8 -8 -8 -8 -8 -8 -8 -8 -8 -8 -8 -8 -8 -8 -7 -7 -7 -7 -6 -6 -6 -5 -5 -5 -5 -4 -4 -4 -3 -3 -3 -3 -3 -3 -3 -3 -3 -3 -3 -3 -3 -3 -3
-8 -8 -9 -9 -9 -8 -8 -8 -8 -8 -8 -8 -8 -8 -8 -7 -7 -7 -6 -6 -6 -6 -5 -5 -5 -5 -4 -4 -4 -4 -3 -3 -3 -3 -3 -3 -3 -3 -3 -4 -4 -4 -4
-8 -8 -9 -9 -9 -9 -9 -8 -8 -8 -8 -8 -8 -8 -8 -8 -8 -7 -7 -7 -6 -6 -6 -5 -5 -5 -5 -4 -4 -4 -4 -4 -4 -4 -4 -4 -4 -4 -4 -4 -4 -4 -4
Wind_Speed
8 6 6 5 5 4 4 3 1 0 1 3 4 5 5 6 7 7 8 8 9 8 7 8 8 7 7 6 5 5 5 4 4 2 2 3 4 6 6 6 6 5 4
9 8 7 6 6 6 5 4 3 1 0 2 3 4 5 6 6 7 8 9 10 10 9 9 9 7 8 7 7 7 6 5 5 5 3 3 4 6 5 4 4 5 5
9 8 8 8 7 6 6 5 4 3 2 1 1 3 4 5 5 6 7 8 9 9 9 10 10 10 10 8 8 7 6 5 4 5 4 3 2 3 4 3 3 2 4
9 9 9 9 8 7 6 5 5 4 3 3 2 2 3 3 5 5 6 6 7 8 8 9 9 11 11 10 9 8 7 6 5 5 4 4 3 3 4 3 3 2 2
9 9 9 8 8 8 7 6 6 5 5 4 3 3 2 3 3 4 5 5 7 7 7 8 9 10 12 11 9 9 10 8 7 6 5 4 4 4 5 4 4 2 2
8 8 8 8 8 8 8 7 7 7 6 5 5 3 3 3 4 5 4 5 5 7 7 6 7 9 11 13 13 14 13 11 10 7 6 7 7 6 5 5 4 3 3
7 8 8 8 8 8 7 7 7 6 6 6 6 5 4 5 5 6 5 4 5 6 7 6 5 6 9 8 10 12 12 13 13 9 8 8 7 8 8 6 5 4 4
7 8 8 8 7 7 7 7 6 5 5 5 6 6 6 6 7 6 6 4 4 5 6 7 7 7 8 9 8 7 7 7 8 7 7 7 7 8 8 8 7 4 2
7 7 7 7 7 7 7 7 6 5 6 5 6 6 7 7 8 8 6 3 4 5 6 7 8 8 12 13 10 8 6 4 5 8 9 9 11 12 11 7 6 4 3
7 7 7 6 7 7 7 6 5 5 6 6 7 6 7 7 9 9 6 3 4 4 4 6 10 11 14 15 11 10 10 7 6 6 6 7 7 9 13 8 8 5 3
7 6 7 7 7 7 6 6 6 6 6 6 7 7 7 8 9 10 8 4 4 4 5 5 7 13 15 16 14 10 11 10 8 7 6 5 4 4 4 5 6 6 5
7 7 7 7 7 7 7 7 7 6 7 7 6 7 5 6 8 9 10 8 7 5 5 5 6 12 14 16 13 12 14 12 7 7 6 6 5 4 4 4 5 5 4
7 8 8 8 7 7 6 7 7 6 6 6 6 6 6 5 6 11 11 10 9 6 5 7 9 12 13 11 13 15 13 8 8 7 7 6 5 5 5 4 5 6 6
8 9 8 8 8 7 6 6 6 6 6 7 7 7 7 5 5 5 5 6 7 6 5 6 10 12 10 9 10 10 8 8 8 8 7 5 5 5 5 4 4 4 3
8 8 8 8 8 8 7 7 7 7 8 9 8 7 8 8 8 11 8 6 4 5 4 3 3 4 6 6 5 6 7 8 8 7 7 7 7 6 5 4 4 4 4
8 8 7 7 7 8 8 9 11 12 16 17 15 13 11 14 16 16 15 13 13 11 6 4 6 6 7 8 8 7 7 8 8 8 8 8 8 8 7 5 4 4 5
8 9 8 8 8 8 8 9 10 11 14 15 16 16 15 16 17 16 15 14 14 11 7 6 6 7 7 7 8 8 8 8 8 9 8 8 8 8 7 7 6 5 5
9 10 10 8 8 9 9 8 8 10 11 9 10 14 16 16 16 15 13 11 7 7 5 6 6 6 7 7 8 8 7 8 8 9 9 9 9 8 8 8 8 7 6
9 8 8 9 9 9 9 8 8 9 9 9 8 9 13 14 14 13 10 6 5 5 5 6 6 6 6 7 7 8 8 8 9 9 9 9 9 9 8 8 8 11 8
8 13 13 10 9 9 8 8 8 8 9 9 9 8 8 8 6 6 5 5 5 5 5 5 5 6 6 6 7 7 8 8 9 9 9 9 9 9 9 10 9 9 8
8 10 14 11 8 9 8 9 9 8 8 9 8 10 13 8 7 7 6 5 5 5 5 5 5 5 6 6 6 7 8 8 9 9 9 9 10 9 9 9 9 9 7
8 8 9 9 9 9 9 8 8 8 9 9 8 9 14 8 6 6 6 5 4 4 4 4 4 4 5 6 6 7 8 8 9 9 9 9 9 9 9 9 9 8 8
8 9 9 9 9 12 11 8 8 8 8 8 8 8 7 6 6 6 6 5 4 4 4 4 4 4 4 4 5 6 7 8 8 9 10 10 10 9 9 9 10 10 9
8 9 9 9 9 8 9 9 8 9 8 8 8 7 7 7 6 6 5 4 4 3 3 4 4 5 5 4 4 5 6 6 8 9 11 10 10 9 9 9 10 10 10
7 8 9 8 9 8 9 9 9 8 9 8 8 7 7 6 6 5 4 4 4 4 4 4 3 4 6 6 5 5 7 10 10 8 9 8 10 10 10 10 9 9 9
7 8 8 8 8 8 8 9 8 8 8 8 8 7 6 6 5 5 4 3 3 3 3 3 3 4 5 5 6 7 9 11 12 12 9 8 9 9 9 9 10 10 10
Wind_Direction
22 26 24 14 21 35 39 21 19 70 184 205 207 204 204 206 204 203 204 196 198 200 195 192 194 182 180 180 174 171 173 166 176 156 136 142 153 163 160 163 169 169 175
17 23 20 14 20 26 22 16 16 3 261 220 215 211 211 213 210 209 209 203 202 202 201 197 196 189 187 180 180 181 179 169 164 167 162 159 167 174 166 166 176 185 191
18 22 23 19 20 18 12 9 12 6 350 323 244 227 219 217 218 218 215 209 207 208 205 203 198 189 195 187 183 180 173 164 153 158 164 159 156 161 156 168 176 188 206
17 21 22 16 13 10 8 8 6 2 353 335 296 259 242 230 222 220 218 212 209 210 209 207 202 198 198 189 186 181 169 166 160 157 160 162 162 159 159 173 190 201 217
18 20 15 9 9 9 7 2 360 1 352 338 318 301 277 248 235 229 222 216 212 212 211 210 207 202 195 191 187 181 175 175 170 171 172 168 176 174 187 174 183 174 218
17 12 6 5 5 4 1 358 358 355 350 347 334 307 288 279 276 258 239 223 215 211 211 208 204 197 195 195 192 186 182 179 182 182 185 191 193 185 169 170 159 161 221
9 5 3 2 360 355 354 357 353 348 344 337 331 319 303 291 283 270 255 239 222 213 206 199 199 199 190 186 188 187 191 193 187 181 188 194 183 182 169 168 171 178 199
0 358 355 353 349 346 348 346 341 336 331 324 318 315 304 294 289 278 268 249 231 218 208 201 197 193 189 179 172 172 178 189 188 183 188 186 180 174 174 172 168 146 106
350 345 342 342 340 341 341 335 329 328 324 315 308 306 300 294 291 283 272 244 237 229 217 206 198 197 196 184 174 173 174 182 184 177 178 178 177 175 163 139 141 144 175
332 329 330 333 334 331 326 320 317 315 310 311 307 304 298 291 289 282 269 242 240 236 226 217 210 205 200 193 184 181 188 189 167 157 154 158 158 170 174 168 163 159 162
315 319 324 325 322 318 317 315 316 314 311 306 300 296 290 287 290 282 269 251 236 236 230 222 218 212 208 203 198 195 196 176 166 160 152 144 135 138 147 156 160 159 165
317 318 317 316 316 319 316 315 314 313 310 306 302 299 289 287 287 281 272 266 255 239 236 227 219 214 212 209 205 200 190 173 159 160 164 170 168 167 158 146 147 145 151
317 313 309 308 307 306 305 306 308 306 303 302 298 297 296 290 289 288 282 274 266 260 244 235 226 217 212 211 206 196 186 171 165 174 183 184 175 161 141 125 112 109 94
312 309 308 307 306 304 300 297 297 298 297 297 297 295 294 286 280 279 274 273 267 265 255 242 235 222 210 204 200 195 182 175 176 181 179 165 150 149 153 149 146 142 131
304 304 305 304 302 302 298 291 292 282 284 290 288 288 291 289 283 282 278 270 264 257 257 243 226 210 201 196 189 183 176 175 181 170 169 166 168 168 168 157 149 147 157
306 304 302 300 299 298 299 299 293 291 294 291 286 286 286 285 290 288 284 278 274 264 255 230 224 219 208 199 195 192 188 186 182 176 175 175 175 175 171 162 158 165 174
302 302 301 300 298 296 295 297 301 303 298 295 292 291 289 289 289 289 284 279 269 259 247 230 225 219 213 202 197 196 196 189 180 179 181 179 176 175 173 176 175 173 181
306 303 303 297 295 293 291 289 290 295 302 299 295 295 294 293 290 287 284 280 263 250 237 229 226 220 214 206 200 198 193 185 182 185 183 181 179 178 180 182 183 182 182
311 307 304 299 296 293 291 290 288 289 291 294 297 299 298 297 292 287 283 266 257 249 240 233 225 219 215 208 202 197 193 191 187 185 186 183 181 180 184 185 185 192 188
309 311 314 310 305 301 296 293 291 291 292 293 293 295 300 299 289 281 267 255 255 256 248 239 227 217 212 207 201 195 193 192 189 189 187 185 184 185 186 184 186 189 194
309 312 315 312 308 305 302 298 295 293 292 292 291 293 298 295 288 279 269 256 250 250 247 242 231 216 209 203 201 197 194 193 191 189 187 185 184 186 187 187 188 188 186
310 309 310 307 307 306 304 302 299 296 295 293 294 296 300 295 285 282 274 264 251 242 242 239 237 225 209 204 200 198 198 194 190 188 187 184 184 185 184 185 184 184 185
308 308 308 307 306 308 309 304 303 300 298 297 296 296 297 293 287 285 281 273 263 255 246 240 238 229 215 211 203 196 197 196 190 184 183 183 183 183 183 186 185 184 187
309 310 310 310 310 308 307 307 306 306 304 303 303 300 298 295 292 289 286 280 270 262 252 244 239 227 215 213 205 199 196 188 181 182 178 179 181 182 182 184 186 188 187
313 313 313 312 312 312 312 310 309 308 308 307 306 305 304 303 301 298 292 285 278 269 259 248 243 234 218 210 203 199 197 186 180 178 176 177 178 180 181 182 185 184 184
315 313 312 312 312 313 313 313 313 314 312 311 309 308 309 309 308 306 305 302 296 286 275 262 251 241 225 213 205 201 196 191 185 179 175 175 178 181 179 182 182 184 183
Height
1440 1440 1440 1440 1440 1440 1441 1442 1443 1445 1447 1450 1452 1454 1456 1458 1460 1462 1464 1466 1468 1470 1472 1474 1477 1479 1480 1483 1485 1487 1489 1491 1492 1493 1495 1496 1498 1499 1500 1501 1501 1501 1501
1441 1440 1440 1439 1439 1439 1440 1440 1441 1443 1445 1446 1448 1449 1451 1453 1454 1456 1457 1459 1461 1463 1465 1467 1469 1472 1474 1475 1478 1480 1482 1484 1486 1487 1489 1490 1492 1494 1495 1496 1496 1496 1496
1442 1441 1440 1439 1439 1439 1439 1439 1440 1440 1441 1442 1443 1444 1446 1448 1449 1450 1451 1453 1454 1457 1459 1461 1462 1464 1467 1468 1471 1473 1475 1478 1480 1481 1483 1484 1486 1488 1489 1490 1491 1492 1492
1444 1442 1440 1439 1438 1438 1438 1438 1438 1438 1438 1439 1439 1440 1441 1442 1443 1444 1445 1446 1448 1450 1452 1454 1455 1457 1460 1462 1464 1466 1468 1471 1473 1475 1477 1478 1480 1482 1483 1485 1486 1487 1488
1444 1442 1441 1440 1438 1437 1437 1436 1436 1435 1435 1435 1436 1436 1437 1437 1438 1438 1439 1440 1442 1443 1445 1447 1449 1451 1453 1456 1457 1459 1462 1464 1466 1468 1470 1472 1474 1476 1477 1479 1480 1482 1483
1445 1443 1441 1440 1438 1436 1435 1434 1434 1433 1432 1432 1432 1432 1432 1432 1433 1433 1434 1435 1436 1437 1439 1441 1443 1445 1447 1449 1451 1453 1455 1457 1459 1462 1464 1465 1468 1470 1472 1473 1475 1476 1478
1445 1443 1441 1439 1437 1435 1434 1432 1431 1430 1429 1428 1428 1428 1427 1427 1428 1428 1428 1429 1430 1431 1433 1435 1437 1439 1441 1442 1444 1446 1449 1451 1454 1456 1457 1459 1462 1464 1466 1468 1469 1471 1473
1445 1442 1440 1438 1436 1434 1432 1430 1428 1427 1426 1425 1424 1423 1422 1422 1422 1422 1422 1423 1424 1425 1427 1428 1430 1432 1434 1436 1438 1440 1442 1445 1447 1449 1452 1454 1456 1459 1461 1463 1465 1467 1468
1444 1442 1439 1437 1434 1432 1429 1427 1425 1424 1422 1421 1420 1418 1417 1417 1417 1416 1417 1417 1417 1418 1420 1421 1423 1425 1427 1430 1432 1434 1436 1438 1441 1444 1446 1448 1450 1452 1455 1457 1459 1461 1463
1443 1440 1438 1435 1432 1430 1427 1425 1422 1420 1418 1417 1415 1414 1413 1412 1411 1411 1411 1411 1411 1412 1413 1415 1417 1419 1421 1423 1425 1427 1429 1432 1435 1437 1439 1442 1444 1447 1449 1452 1454 1456 1458
1441 1438 1435 1432 1430 1427 1424 1422 1419 1416 1414 1412 1410 1409 1408 1407 1406 1406 1406 1406 1406 1406 1407 1408 1410 1412 1414 1417 1419 1421 1423 1426 1428 1431 1433 1436 1438 1441 1444 1446 1449 1451 1454
1438 1435 1432 1429 1426 1423 1420 1417 1415 1412 1409 1407 1405 1403 1402 1402 1401 1400 1400 1400 1400 1400 1401 1402 1404 1406 1408 1410 1412 1414 1417 1419 1422 1424 1427 1429 1432 1436 1439 1441 1444 1446 1449
1434 1431 1428 1425 1422 1419 1416 1412 1410 1407 1405 1402 1400 1398 1396 1396 1395 1394 1394 1394 1394 1394 1395 1396 1398 1399 1401 1403 1405 1408 1410 1412 1415 1418 1420 1424 1427 1431 1434 1436 1439 1441 1444
1430 1427 1424 1420 1417 1414 1411 1408 1405 1402 1400 1397 1395 1393 1391 1390 1389 1389 1388 1388 1388 1388 1389 1390 1391 1392 1394 1396 1399 1401 1404 1406 1409 1412 1415 1419 1422 1425 1428 1431 1434 1436 1440
1426 1423 1419 1416 1412 1409 1406 1403 1400 1398 1396 1393 1390 1388 1386 1384 1384 1384 1383 1382 1382 1383 1383 1384 1384 1386 1387 1390 1392 1395 1398 1400 1403 1407 1410 1413 1416 1420 1423 1426 1429 1432 1435
1422 1418 1414 1411 1407 1404 1400 1397 1394 1393 1390 1387 1385 1383 1381 1379 1378 1377 1377 1376 1376 1377 1377 1377 1378 1379 1381 1383 1386 1389 1392 1394 1397 1401 1404 1408 1411 1414 1418 1421 1424 1427 1430
1417 1413 1410 1406 1402 1399 1395 1391 1387 1384 1383 1381 1379 1377 1375 1373 1372 1371 1370 1369 1370 1371 1371 1371 1372 1373 1375 1377 1380 1383 1385 1389 1392 1395 1399 1402 1406 1409 1413 1416 1419 1422 1426
1412 1409 1405 1401 1397 1394 1390 1387 1383 1379 1375 1373 1372 1370 1368 1366 1365 1364 1364 1363 1363 1363 1364 1365 1366 1368 1369 1371 1374 1376 1379 1383 1386 1389 1393 1396 1400 1403 1407 1410 1414 1417 1421
1408 1404 1400 1396 1392 1389 1385 1382 1378 1375 1371 1368 1365 1363 1362 1360 1359 1358 1357 1357 1356 1357 1358 1359 1360 1362 1363 1366 1368 1370 1373 1376 1380 1383 1387 1391 1394 1398 1401 1405 1409 1412 1416
1403 1399 1396 1391 1387 1383 1380 1377 1373 1370 1367 1364 1361 1358 1356 1354 1353 1352 1351 1351 1351 1351 1352 1353 1354 1356 1358 1360 1362 1365 1367 1370 1374 1377 1381 1385 1389 1392 1396 1400 1403 1407 1410
1399 1395 1391 1387 1383 1379 1376 1372 1369 1366 1362 1359 1356 1354 1352 1350 1348 1347 1346 1346 1345 1346 1346 1347 1349 1350 1352 1354 1356 1359 1362 1365 1368 1372 1375 1379 1383 1387 1391 1394 1398 1402 1405
1395 1391 1386 1383 1379 1375 1372 1368 1365 1361 1358 1355 1352 1350 1348 1346 1344 1342 1341 1341 1341 1341 1341 1342 1343 1345 1347 1349 1351 1353 1356 1359 1363 1366 1370 1373 1377 1381 1385 1389 1393 1396 1400
1391 1387 1383 1379 1375 1371 1368 1364 1361 1357 1354 1351 1348 1345 1343 1341 1339 1338 1337 1336 1336 1336 1337 1338 1339 1340 1342 1344 1346 1349 1351 1354 1358 1361 1365 1368 1372 1375 1379 1383 1387 1391 1394
1388 1384 1379 1375 1372 1368 1364 1360 1357 1353 1350 1347 1344 1342 1339 1337 1335 1334 1333 1332 1332 1332 1332 1333 1334 1336 1338 1339 1341 1344 1346 1349 1353 1356 1360 1363 1366 1370 1374 1378 1382 1385 1389
1384 1380 1376 1372 1368 1364 1361 1357 1354 1350 1347 1344 1341 1338 1336 1334 1332 1330 1329 1328 1328 1328 1328 1329 1330 1332 1333 1335 1337 1339 1342 1345 1348 1351 1355 1358 1361 1365 1369 1373 1376 1380 1384
1380 1377 1373 1369 1365 1361 1358 1354 1351 1347 1344 1341 1338 1336 1333 1331 1329 1327 1326 1325 1325 1325 1325 1326 1327 1328 1329 1331 1333 1335 1338 1341 1344 1347 1350 1353 1357 1360 1364 1368 1371 1375 1378